SCP
0 0 0 -0 0 0 0 0 0 0 0 0 0 0 0 0 0 0 0 0 0 0 0 0 0 0 0 0 0 0 0 0 0 0 0 0 0 0 0 0 0 0 0
0 0 0 0 0 0 0 0 0 0 0 0 0 0 0 0 0 0 0 0 0 0 0 0 0 0 0 0 0 0 0 0 0 0 0 0 0 0 0 0 0 0 0
0 0 0 0 0 0 0 0 0 0 0 0 0 0 0 0 0 0 0 0 0 0 0 0 0 0 0 0 0 0 0 0 0 0 0 0 0 0 0 0 0 0 0
0 0 0 0 0 0 0 0 0 0 0 0 0 0 0 0 0 0 0 0 0 0 0 0 0 0 0 0 0 0 0 0 0 0 0 0 0 0 0 0 0 0 0
0 0 0 0 0 0 0 0 0 0 0 0 0 0 0 0 0 0 0 0 0 0 0 0 0 0 0 0 0 0 0 0 0 0 0 0 0 0 0 0 0 0 0
0 0 0 0 0 0 0 0 0 0 0 0 0 0 0 0 0 0 0 0 0 0 0 0 0 0 0 0 0 0 0 0 0 0 0 0 0 0 0 0 0 0 0
0 0 0 0 0 0 0 0 0 0 0 0 0 0 0 0 0 0 0 0 0 0 0 0 0 0 0 0 0 0 0 0 0 0 0 0 0 0 0 0 0 0 0
0 0 0 0 0 0 0 0 0 0 0 0 0 0 0 0 0 0 0 0 0 0 0 0 0 0 0 0 0 0 0 0 0 0 0 0 0 0 0 0 0 0 0
0 0 0 0 0 0 0 0 0 0 0 0 0 0 0 0 0 0 0 0 0 0 0 0 0 0 0 0 0 0 0 0 0 0 0 0 0 0 0 0 0 0 0
0 0 0 0 0 0 0 0 0 0 0 0 0 0 0 0 0 0 0 0 0 0 0 0 0 0 0 0 0 0 0 0 0 0 0 0 0 0 0 0 0 0 0
0 0 0 0 0 0 0 0 0 0 0 0 0 0 0 0 0 0 0 0 0 0 0 0 0 0 0 0 0 0 0 0 0 0 0 0 0 0 0 0 0 0 0
0 0 0 0 0 0 0 0 0 0 0 0 0 0 0 0 0 0 0 0 0 0 0 0 0 0 0 0 0 0 0 0 0 0 0 0 0 0 0 0 0 0 0
0 0 0 0 0 0 0 0 0 0 0 0 0 0 0 0 0 0 0 0 0 0 0 0 0 0 0 0 0 0 0 0 0 0 0 0 0 0 0 0 0 0 0
0 0 0 0 0 0 0 0 0 0 0 0 0 0 0 0 0 0 0 0 0 0 0 0 0 0 0 0 0 0 0 0 0 0 0 0 0 0 0 0 0 0 0
0 0 0 0 0 0 0 0 0 0 0 0 0 0 0 0 0 0 0 0 0 0 0 0 0 0 0 0 0 0 0 0 0 0 0 0 0 0 0 0 0 0 0
0 0 0 0 0 0 0 0 0 0 0 0 0 0 0 0 0 0 0 0 0 0 0 0 0 0 0 0 0 0 0 0 0 0 0 0 0 0 0 0 0 0 0
0 0 0 0 0 0 0 0 0 0 0 0 0 0 0 0 0 0 0 0 0 0 0 0 0 0 0 0 0 0 0 0 0 0 0 0 0 0 0 0 0 0 0
0 0 0 0 0 0 0 0 0 0 0 0 0 0 0 0 0 0 0 0 0 0 0 0 0 0 0 0 0 0 0 0 0 0 0 0 0 0 0 0 0 0 0
0 0 0 0 0 0 0 0 0 0 0 0 0 0 0 0 0 0 0 0 0 0 0 0 0 0 0 0 0 0 0 0 0 0 0 0 0 0 0 0 0 0 0
0 0 0 0 0 0 0 0 0 0 0 0 0 0 0 0 0 0 0 0 0 0 0 0 0 0 0 0 0 0 0 0 0 0 0 0 0 0 0 0 0 0 0
0 0 0 0 0 0 0 0 0 0 0 0 0 0 0 0 0 0 0 0 0 0 0 0 0 0 0 0 0 0 0 0 0 0 0 0 0 0 0 0 0 0 0
0 0 0 0 0 0 0 0 0 0 0 0 0 0 0 0 0 0 0 0 0 0 0 0 0 0 0 0 0 0 0 0 0 0 0 0 0 0 0 0 0 0 0
0 0 0 0 0 0 0 0 0 0 0 0 0 0 0 0 0 0 0 0 0 0 0 0 0 0 0 0 0 0 0 0 0 0 0 0 0 0 0 0 0 0 0
0 0 0 0 0 0 0 0 0 0 0 0 0 0 0 0 0 0 0 0 0 0 0 0 0 0 0 0 0 0 0 0 0 0 0 0 0 0 0 0 0 0 0
0 0 0 0 0 0 0 0 0 0 0 0 0 0 0 0 0 0 0 0 0 0 0 0 0 0 0 0 0 0 0 0 0 0 0 0 0 0 0 0 0 0 0
0 0 0 0 0 0 0 0 0 0 0 0 0 0 0 0 0 0 0 0 0 0 0 0 0 0 0 0 0 0 0 0 0 0 0 0 0 0 0 0 0 0 0
Wind_Speed_500mb
58 56 55 56 60 61 59 58 60 54 51 46 47 47 48 45 49 45 42 38 32 27 25 23 23 26 25 28 28 29 34 33 37 50 46 44 47 37 37 32 50 41 40
63 63 62 66 70 65 65 65 60 61 56 53 50 48 44 40 46 43 40 36 33 29 26 28 29 30 32 31 31 33 37 39 37 40 47 44 58 26 48 48 50 29 50
67 65 67 65 71 73 69 64 60 60 57 52 51 50 42 35 37 41 40 34 30 28 34 34 35 37 35 35 35 32 33 27 32 34 35 21 19 62 52 57 35 59 46
70 67 69 64 66 70 68 67 65 65 62 56 53 54 48 43 35 37 31 32 37 41 41 39 37 36 35 34 34 33 31 37 40 40 38 34 40 33 36 40 61 44 60
66 70 68 65 64 66 69 70 70 70 69 66 60 55 53 43 35 38 41 41 39 38 37 34 31 31 29 28 30 30 29 30 31 36 35 39 38 32 34 56 60 74 72
68 66 64 65 67 67 68 69 67 69 70 70 67 63 58 50 41 42 42 41 40 35 31 29 27 24 23 23 26 28 26 25 24 22 24 28 33 40 45 63 78 82 78
72 74 74 69 65 65 66 68 71 75 73 68 69 68 61 53 49 47 45 42 38 33 30 29 32 29 26 20 18 16 15 16 17 18 22 26 31 38 44 53 69 82 92
70 72 73 70 65 64 64 62 63 68 73 74 69 70 67 57 52 45 40 39 37 34 33 31 24 18 16 13 12 12 14 15 17 19 21 25 30 36 44 52 63 87 80
79 72 67 66 63 60 58 56 53 56 61 68 68 70 69 59 48 44 43 41 40 37 30 26 21 17 14 12 12 11 11 14 17 22 26 30 33 37 41 44 50 58 72
77 71 65 61 56 53 49 47 46 47 49 55 63 71 68 65 51 48 47 45 40 36 32 27 22 17 14 10 8 10 14 18 22 26 29 33 36 39 42 43 45 48 56
64 60 57 52 49 47 48 47 45 45 47 53 62 66 69 61 51 46 47 44 41 37 31 26 20 15 12 10 10 13 18 22 26 30 33 37 40 42 43 44 46 47 54
55 53 50 49 49 48 46 47 50 51 53 56 62 65 63 56 51 52 50 46 41 36 31 25 20 15 11 10 14 17 21 25 29 32 35 38 40 42 44 45 48 52 55
54 51 51 52 51 53 53 51 51 54 58 61 63 64 61 61 59 56 52 47 40 34 30 25 18 13 12 14 16 20 24 28 31 34 36 38 39 41 44 47 49 51 55
54 55 57 57 57 56 55 53 52 56 60 61 62 63 64 63 59 54 49 43 38 33 28 20 15 14 14 14 18 21 24 28 31 33 35 36 38 41 43 46 49 53 56
61 66 67 65 62 60 57 56 56 58 61 64 65 65 64 61 58 55 49 44 39 32 23 18 16 14 14 17 20 22 23 25 27 30 32 34 37 39 43 47 49 49 52
68 74 72 70 70 70 70 68 68 68 67 66 68 68 66 63 59 54 50 45 38 29 23 18 16 16 18 18 19 21 22 23 25 28 31 34 37 41 46 47 47 45 48
65 76 80 79 79 81 78 78 77 74 75 74 73 69 66 64 59 54 49 41 34 26 21 19 19 20 21 20 19 16 19 21 25 30 35 37 41 45 48 47 44 44 40
64 71 79 82 83 84 85 84 84 84 83 83 80 75 72 66 61 55 47 41 32 26 24 22 21 23 23 20 17 16 18 22 28 34 40 44 46 48 49 48 48 44 42
58 63 71 80 86 91 93 93 92 92 89 87 84 79 73 67 61 54 47 39 32 29 26 24 24 25 23 18 16 18 21 25 30 35 39 45 48 50 50 49 50 47 48
75 75 75 78 85 92 97 100 101 99 99 94 89 81 74 68 61 54 46 37 33 29 26 24 25 26 22 18 19 21 27 33 37 41 44 48 52 53 44 45 46 49 52
73 79 75 78 80 85 96 105 108 110 102 96 89 82 75 67 59 52 43 37 33 29 23 27 28 25 22 21 23 26 31 36 40 44 47 48 49 49 45 41 42 44 47
48 51 67 76 79 83 88 103 111 106 101 96 89 84 78 71 62 51 42 36 32 26 30 30 28 28 25 26 28 28 30 36 42 45 49 49 48 46 41 37 41 40 41
42 46 53 64 74 78 81 92 102 106 104 99 94 88 80 69 58 48 40 36 30 32 30 36 33 29 29 30 30 32 34 39 46 50 51 51 46 43 44 40 43 38 40
26 33 45 56 63 66 71 76 92 106 103 102 98 89 79 68 56 47 41 34 29 30 46 37 35 32 29 29 30 33 37 42 45 47 49 47 46 45 45 46 41 38 37
24 26 32 43 51 56 64 74 84 98 104 102 96 88 76 64 53 44 36 25 39 48 40 38 36 33 31 31 33 38 42 46 47 51 50 49 47 44 38 38 42 42 39
23 26 31 37 43 49 60 71 79 90 100 100 93 82 70 59 47 36 32 39 54 47 40 37 36 35 34 34 37 40 45 47 48 49 49 48 48 47 44 43 43 45 44
Wind_Direction_500mb
217 211 209 211 218 222 224 226 227 228 228 228 228 226 225 231 232 234 241 243 246 248 253 259 264 277 283 283 287 290 297 297 306 307 311 311 316 314 304 312 314 313 322
221 217 214 217 222 223 227 227 227 227 227 230 234 236 235 245 230 236 239 240 242 248 252 262 266 269 273 276 281 281 288 296 300 307 316 322 318 317 309 319 326 321 325
221 217 217 220 223 224 223 224 225 226 226 231 231 233 231 235 231 229 230 237 243 248 253 256 253 262 268 271 275 277 281 306 309 315 315 316 302 312 318 320 322 322 328
223 218 218 216 218 223 223 223 224 226 227 228 227 229 232 234 238 230 237 239 236 239 246 252 255 258 265 267 272 273 288 286 296 295 297 302 304 317 314 306 320 319 327
224 219 217 218 216 218 221 223 224 227 228 229 229 230 231 237 234 227 225 231 234 241 249 254 253 255 258 262 269 274 280 280 280 286 294 302 311 317 306 312 314 320 326
223 220 219 217 218 219 222 224 227 228 230 230 227 224 231 234 231 230 228 229 235 239 240 245 249 251 252 255 254 266 273 278 288 299 311 315 318 318 315 313 320 320 326
220 218 217 216 219 223 229 232 233 233 231 227 224 221 221 234 236 235 235 228 226 227 228 235 237 238 239 245 254 263 276 286 294 301 308 313 313 314 316 315 318 320 324
216 216 217 219 222 228 234 236 235 234 231 228 222 216 216 223 230 232 225 222 223 224 222 232 217 213 221 227 241 259 274 286 300 308 312 315 318 317 319 322 325 324 322
212 214 218 223 228 235 239 238 233 230 225 222 216 210 216 211 217 215 212 214 210 215 210 202 198 199 208 229 249 264 285 299 309 316 319 318 318 319 319 321 323 324 320
208 211 216 222 226 231 233 230 224 222 220 213 210 207 210 211 214 219 201 202 204 196 194 195 193 203 216 228 253 285 300 310 316 317 321 322 320 320 320 318 317 316 312
205 206 213 221 227 225 223 220 215 211 210 203 202 203 207 216 211 212 198 194 191 189 189 195 203 206 217 239 270 298 310 314 319 322 323 321 321 319 318 317 315 313 310
207 208 216 220 219 218 217 213 207 202 202 197 198 203 210 210 204 191 188 188 191 189 195 198 202 211 232 267 293 302 311 315 318 319 320 319 319 318 317 317 318 320 320
208 211 213 217 217 213 211 207 203 199 199 198 200 201 201 191 187 187 187 188 191 195 197 201 206 225 257 277 295 310 316 316 318 320 320 320 321 322 322 323 324 324 323
210 213 214 216 216 212 208 203 199 198 199 196 195 190 186 186 184 185 188 191 192 198 199 205 222 244 262 290 308 313 314 315 318 321 322 324 327 327 326 328 330 327 324
214 216 217 217 214 210 205 201 197 194 193 189 188 188 186 185 186 188 190 192 195 198 203 219 238 261 284 297 303 308 313 314 320 325 329 329 329 327 330 329 328 326 324
222 222 221 220 218 213 207 202 200 197 195 194 194 192 189 188 191 192 192 194 196 200 212 232 251 267 281 288 296 302 309 317 324 328 330 329 328 331 328 327 325 326 325
232 229 227 224 221 218 213 208 205 201 200 199 198 196 195 194 194 193 194 196 200 210 223 234 248 261 273 283 285 295 308 321 326 329 329 331 331 329 324 323 326 327 328
244 242 237 230 226 222 218 213 209 206 204 202 201 200 198 197 196 196 197 201 209 218 223 234 251 266 275 276 282 293 312 322 327 330 329 329 329 326 326 325 325 329 327
256 259 254 243 230 225 220 216 212 209 206 205 204 203 201 199 199 199 202 207 216 223 228 238 253 264 264 264 275 297 311 317 323 323 324 323 323 323 322 319 321 325 324
251 252 249 241 234 229 223 219 216 212 210 208 206 205 203 203 202 203 206 214 221 224 230 247 263 259 256 263 281 297 308 315 321 323 322 319 319 320 323 322 324 319 317
258 254 248 245 243 234 227 221 218 216 214 210 207 205 204 203 203 206 211 218 221 223 239 262 254 252 261 274 285 296 305 310 316 319 318 318 318 319 321 316 315 307 309
267 261 251 248 245 240 231 223 221 219 215 211 206 204 204 203 204 208 214 218 221 233 257 248 252 254 266 275 284 291 301 306 311 318 319 322 323 322 319 301 302 303 305
259 255 251 246 242 239 234 228 224 219 215 208 205 204 204 204 206 212 217 220 230 251 243 261 249 255 267 276 282 292 301 308 314 318 318 320 321 315 312 298 293 303 310
277 265 249 243 242 239 233 229 226 219 211 207 204 203 203 204 207 213 217 224 231 263 259 247 254 260 263 271 286 296 300 305 312 316 315 319 320 315 306 298 293 293 300
303 286 264 254 248 240 231 227 225 218 209 206 203 202 203 205 211 216 217 243 258 248 244 250 257 263 272 283 291 298 303 307 314 315 319 319 317 312 304 292 290 285 293
306 293 275 260 250 241 234 230 225 216 210 204 203 203 203 206 211 211 246 248 241 236 243 251 258 268 278 289 296 299 301 306 311 314 317 316 313 309 308 303 295 287 288
Wind_Speed_850mb
58 56 55 56 60 61 59 58 60 54 51 46 47 47 48 45 49 45 42 38 32 27 25 23 23 26 25 28 28 29 34 33 37 50 46 44 47 37 37 32 50 41 40
63 63 62 66 70 65 65 65 60 61 56 53 50 48 44 40 46 43 40 36 33 29 26 28 29 30 32 31 31 33 37 39 37 40 47 44 58 26 48 48 50 29 50
67 65 67 65 71 73 69 64 60 60 57 52 51 50 42 35 37 41 40 34 30 28 34 34 35 37 35 35 35 32 33 27 32 34 35 21 19 62 52 57 35 59 46
70 67 69 64 66 70 68 67 65 65 62 56 53 54 48 43 35 37 31 32 37 41 41 39 37 36 35 34 34 33 31 37 40 40 38 34 40 33 36 40 61 44 60
66 70 68 65 64 66 69 70 70 70 69 66 60 55 53 43 35 38 41 41 39 38 37 34 31 31 29 28 30 30 29 30 31 36 35 39 38 32 34 56 60 74 72
68 66 64 65 67 67 68 69 67 69 70 70 67 63 58 50 41 42 42 41 40 35 31 29 27 24 23 23 26 28 26 25 24 22 24 28 33 40 45 63 78 82 78
72 74 74 69 65 65 66 68 71 75 73 68 69 68 61 53 49 47 45 42 38 33 30 29 32 29 26 20 18 16 15 16 17 18 22 26 31 38 44 53 69 82 92
70 72 73 70 65 64 64 62 63 68 73 74 69 70 67 57 52 45 40 39 37 34 33 31 24 18 16 13 12 12 14 15 17 19 21 25 30 36 44 52 63 87 80
79 72 67 66 63 60 58 56 53 56 61 68 68 70 69 59 48 44 43 41 40 37 30 26 21 17 14 12 12 11 11 14 17 22 26 30 33 37 41 44 50 58 72
77 71 65 61 56 53 49 47 46 47 49 55 63 71 68 65 51 48 47 45 40 36 32 27 22 17 14 10 8 10 14 18 22 26 29 33 36 39 42 43 45 48 56
64 60 57 52 49 47 48 47 45 45 47 53 62 66 69 61 51 46 47 44 41 37 31 26 20 15 12 10 10 13 18 22 26 30 33 37 40 42 43 44 46 47 54
55 53 50 49 49 48 46 47 50 51 53 56 62 65 63 56 51 52 50 46 41 36 31 25 20 15 11 10 14 17 21 25 29 32 35 38 40 42 44 45 48 52 55
54 51 51 52 51 53 53 51 51 54 58 61 63 64 61 61 59 56 52 47 40 34 30 25 18 13 12 14 16 20 24 28 31 34 36 38 39 41 44 47 49 51 55
54 55 57 57 57 56 55 53 52 56 60 61 62 63 64 63 59 54 49 43 38 33 28 20 15 14 14 14 18 21 24 28 31 33 35 36 38 41 43 46 49 53 56
61 66 67 65 62 60 57 56 56 58 61 64 65 65 64 61 58 55 49 44 39 32 23 18 16 14 14 17 20 22 23 25 27 30 32 34 37 39 43 47 49 49 52
68 74 72 70 70 70 70 68 68 68 67 66 68 68 66 63 59 54 50 45 38 29 23 18 16 16 18 18 19 21 22 23 25 28 31 34 37 41 46 47 47 45 48
65 76 80 79 79 81 78 78 77 74 75 74 73 69 66 64 59 54 49 41 34 26 21 19 19 20 21 20 19 16 19 21 25 30 35 37 41 45 48 47 44 44 40
64 71 79 82 83 84 85 84 84 84 83 83 80 75 72 66 61 55 47 41 32 26 24 22 21 23 23 20 17 16 18 22 28 34 40 44 46 48 49 48 48 44 42
58 63 71 80 86 91 93 93 92 92 89 87 84 79 73 67 61 54 47 39 32 29 26 24 24 25 23 18 16 18 21 25 30 35 39 45 48 50 50 49 50 47 48
75 75 75 78 85 92 97 100 101 99 99 94 89 81 74 68 61 54 46 37 33 29 26 24 25 26 22 18 19 21 27 33 37 41 44 48 52 53 44 45 46 49 52
73 79 75 78 80 85 96 105 108 110 102 96 89 82 75 67 59 52 43 37 33 29 23 27 28 25 22 21 23 26 31 36 40 44 47 48 49 49 45 41 42 44 47
48 51 67 76 79 83 88 103 111 106 101 96 89 84 78 71 62 51 42 36 32 26 30 30 28 28 25 26 28 28 30 36 42 45 49 49 48 46 41 37 41 40 41
42 46 53 64 74 78 81 92 102 106 104 99 94 88 80 69 58 48 40 36 30 32 30 36 33 29 29 30 30 32 34 39 46 50 51 51 46 43 44 40 43 38 40
26 33 45 56 63 66 71 76 92 106 103 102 98 89 79 68 56 47 41 34 29 30 46 37 35 32 29 29 30 33 37 42 45 47 49 47 46 45 45 46 41 38 37
24 26 32 43 51 56 64 74 84 98 104 102 96 88 76 64 53 44 36 25 39 48 40 38 36 33 31 31 33 38 42 46 47 51 50 49 47 44 38 38 42 42 39
23 26 31 37 43 49 60 71 79 90 100 100 93 82 70 59 47 36 32 39 54 47 40 37 36 35 34 34 37 40 45 47 48 49 49 48 48 47 44 43 43 45 44
Wind_Direction_850mb
217 211 209 211 218 222 224 226 227 228 228 228 228 226 225 231 232 234 241 243 246 248 253 259 264 277 283 283 287 290 297 297 306 307 311 311 316 314 304 312 314 313 322
221 217 214 217 222 223 227 227 227 227 227 230 234 236 235 245 230 236 239 240 242 248 252 262 266 269 273 276 281 281 288 296 300 307 316 322 318 317 309 319 326 321 325
221 217 217 220 223 224 223 224 225 226 226 231 231 233 231 235 231 229 230 237 243 248 253 256 253 262 268 271 275 277 281 306 309 315 315 316 302 312 318 320 322 322 328
223 218 218 216 218 223 223 223 224 226 227 228 227 229 232 234 238 230 237 239 236 239 246 252 255 258 265 267 272 273 288 286 296 295 297 302 304 317 314 306 320 319 327
224 219 217 218 216 218 221 223 224 227 228 229 229 230 231 237 234 227 225 231 234 241 249 254 253 255 258 262 269 274 280 280 280 286 294 302 311 317 306 312 314 320 326
223 220 219 217 218 219 222 224 227 228 230 230 227 224 231 234 231 230 228 229 235 239 240 245 249 251 252 255 254 266 273 278 288 299 311 315 318 318 315 313 320 320 326
220 218 217 216 219 223 229 232 233 233 231 227 224 221 221 234 236 235 235 228 226 227 228 235 237 238 239 245 254 263 276 286 294 301 308 313 313 314 316 315 318 320 324
216 216 217 219 222 228 234 236 235 234 231 228 222 216 216 223 230 232 225 222 223 224 222 232 217 213 221 227 241 259 274 286 300 308 312 315 318 317 319 322 325 324 322
212 214 218 223 228 235 239 238 233 230 225 222 216 210 216 211 217 215 212 214 210 215 210 202 198 199 208 229 249 264 285 299 309 316 319 318 318 319 319 321 323 324 320
208 211 216 222 226 231 233 230 224 222 220 213 210 207 210 211 214 219 201 202 204 196 194 195 193 203 216 228 253 285 300 310 316 317 321 322 320 320 320 318 317 316 312
205 206 213 221 227 225 223 220 215 211 210 203 202 203 207 216 211 212 198 194 191 189 189 195 203 206 217 239 270 298 310 314 319 322 323 321 321 319 318 317 315 313 310
207 208 216 220 219 218 217 213 207 202 202 197 198 203 210 210 204 191 188 188 191 189 195 198 202 211 232 267 293 302 311 315 318 319 320 319 319 318 317 317 318 320 320
208 211 213 217 217 213 211 207 203 199 199 198 200 201 201 191 187 187 187 188 191 195 197 201 206 225 257 277 295 310 316 316 318 320 320 320 321 322 322 323 324 324 323
210 213 214 216 216 212 208 203 199 198 199 196 195 190 186 186 184 185 188 191 192 198 199 205 222 244 262 290 308 313 314 315 318 321 322 324 327 327 326 328 330 327 324
214 216 217 217 214 210 205 201 197 194 193 189 188 188 186 185 186 188 190 192 195 198 203 219 238 261 284 297 303 308 313 314 320 325 329 329 329 327 330 329 328 326 324
222 222 221 220 218 213 207 202 200 197 195 194 194 192 189 188 191 192 192 194 196 200 212 232 251 267 281 288 296 302 309 317 324 328 330 329 328 331 328 327 325 326 325
232 229 227 224 221 218 213 208 205 201 200 199 198 196 195 194 194 193 194 196 200 210 223 234 248 261 273 283 285 295 308 321 326 329 329 331 331 329 324 323 326 327 328
244 242 237 230 226 222 218 213 209 206 204 202 201 200 198 197 196 196 197 201 209 218 223 234 251 266 275 276 282 293 312 322 327 330 329 329 329 326 326 325 325 329 327
256 259 254 243 230 225 220 216 212 209 206 205 204 203 201 199 199 199 202 207 216 223 228 238 253 264 264 264 275 297 311 317 323 323 324 323 323 323 322 319 321 325 324
251 252 249 241 234 229 223 219 216 212 210 208 206 205 203 203 202 203 206 214 221 224 230 247 263 259 256 263 281 297 308 315 321 323 322 319 319 320 323 322 324 319 317
258 254 248 245 243 234 227 221 218 216 214 210 207 205 204 203 203 206 211 218 221 223 239 262 254 252 261 274 285 296 305 310 316 319 318 318 318 319 321 316 315 307 309
267 261 251 248 245 240 231 223 221 219 215 211 206 204 204 203 204 208 214 218 221 233 257 248 252 254 266 275 284 291 301 306 311 318 319 322 323 322 319 301 302 303 305
259 255 251 246 242 239 234 228 224 219 215 208 205 204 204 204 206 212 217 220 230 251 243 261 249 255 267 276 282 292 301 308 314 318 318 320 321 315 312 298 293 303 310
277 265 249 243 242 239 233 229 226 219 211 207 204 203 203 204 207 213 217 224 231 263 259 247 254 260 263 271 286 296 300 305 312 316 315 319 320 315 306 298 293 293 300
303 286 264 254 248 240 231 227 225 218 209 206 203 202 203 205 211 216 217 243 258 248 244 250 257 263 272 283 291 298 303 307 314 315 319 319 317 312 304 292 290 285 293
306 293 275 260 250 241 234 230 225 216 210 204 203 203 203 206 211 211 246 248 241 236 243 251 258 268 278 289 296 299 301 306 311 314 317 316 313 309 308 303 295 287 288